(278704) = 2008 SR3

Discovered at Socorro on 2008-09-22 by LINEAR.

Orbit

Orbit type: Main Belt

Note: WebGL enabled browser required.

epoch2024-03-31.0
epoch JD2460400.5
perihelion date2022-10-08.95982
perihelion JD2459861.45983
argument of perihelion (°)241.94429
ascending node (°)167.77740
inclination (°)12.04311
eccentricity0.2178943
perihelion distance (AU)2.1498745
Tisserand w.r.t. Jupiter3.3
ΔV w.r.t. Earth (km/sec)9.9
semimajor axis (AU)2.7488286
mean anomaly (°)116.57454
mean daily motion (°/day)0.21626320
aphelion distance (AU)3.348
period (years)4.56
P-vector [x]0.64238902
P-vector [y]0.75578545
P-vector [z]0.12698307
Q-vector [x]-0.76510464
Q-vector [y]0.62290616
Q-vector [z]0.16310365
absolute magnitude16.65
phase slope0.15
uncertainty0
referenceE2024-GJ9
observations used267
oppositions13
arc length (days)8452
first opposition used2001
last opposition used2024
residual rms (arc-secs)0.75
perturbers coarse indicatorM-v
perturbers precise indicator003Ek
first observation date used2001-02-20.0
last observation date used2024-04-12.0
computer nameMPCLINUX
JD of orbit computation2456731.570104
perihelion JD uncertainty (days)6.0267E-05
argument of perihelion uncertainty (°)3.2741E-05
ascending node uncertainty (°)2.6556E-05
inclination uncertainty (°)5.0634E-06
eccentricity uncertainty 6.2897E-08
perihelion distance uncertainty (AU)1.5812E-07
Minimum Orbit Intersection Distances (in AU)
for orbit epoch: 2460400.5, reference: E2024-GJ9
Mercury1.83748
Venus1.43937
Earth1.18844
Mars0.75379
Jupiter2.17392
Saturn6.45702
Uranus15.3476
Neptune27.3336

Observations

266 total observations over interval: 2001 02 20.38219 – 2024 03 16.562545
These data are available for download (format description).

Date (UT) J2000 RA J2000 Dec Magn Location Ref
2001 02 20.38219 11 28 01.53 +02 19 30.1 21.4 V 691 – Steward Observatory, Kitt Peak-Spacewatch MPS 367133
2001 02 20.40414 11 28 00.58 +02 19 40.9 21.0 V 691 – Steward Observatory, Kitt Peak-Spacewatch MPS 367133
2001 02 20.42595 11 27 59.64 +02 19 51.2 21.3 V 691 – Steward Observatory, Kitt Peak-Spacewatch MPS 367133
2003 07 08.39355 20 51 36.12 -04 23 37.5 21.2 V 691 – Steward Observatory, Kitt Peak-Spacewatch MPS 367133
2003 07 08.41625 20 51 35.27 -04 23 40.9 21.4 V 691 – Steward Observatory, Kitt Peak-Spacewatch MPS 367133
2003 07 08.44089 20 51 34.40 -04 23 44.2 21.5 V 691 – Steward Observatory, Kitt Peak-Spacewatch MPS 367133
2006 03 25.28976 13 38 37.02 -01 10 05.4 21.8 V 691 – Steward Observatory, Kitt Peak-Spacewatch MPS 367133
2006 03 25.31064 13 38 36.17 -01 09 56.3 21.2 V 691 – Steward Observatory, Kitt Peak-Spacewatch MPS 367133
2006 03 25.33153 13 38 35.33 -01 09 46.0 21.4 V 691 – Steward Observatory, Kitt Peak-Spacewatch MPS 367133
2008 08 23.34206 00 41 37.36 +02 08 34.3   691 – Steward Observatory, Kitt Peak-Spacewatch MPS 272753
2008 08 23.35964 00 41 37.28 +02 08 26.6   691 – Steward Observatory, Kitt Peak-Spacewatch MPS 272753
2008 08 23.38069 00 41 37.22 +02 08 17.1   691 – Steward Observatory, Kitt Peak-Spacewatch MPS 272753
2008 09 22.28433 00 30 20.75 -02 53 59.8 19.6   704 – Lincoln Laboratory ETS, New Mexico MPS 256848
2008 09 22.32020 00 30 19.22 -02 54 25.8 19.3   704 – Lincoln Laboratory ETS, New Mexico MPS 256848
2008 09 22.33216 00 30 18.71 -02 54 33.7 19.4   704 – Lincoln Laboratory ETS, New Mexico MPS 256848
2008 09 23.23579 00 29 44.01 -03 05 15.8 18.9   704 – Lincoln Laboratory ETS, New Mexico MPS 256848
2008 09 23.24811 00 29 43.50 -03 05 24.4 20.0   704 – Lincoln Laboratory ETS, New Mexico MPS 256848
2008 09 23.26040 00 29 42.99 -03 05 33.2 19.5   704 – Lincoln Laboratory ETS, New Mexico MPS 256848
2008 09 23.27271 00 29 42.48 -03 05 42.2 19.4   704 – Lincoln Laboratory ETS, New Mexico MPS 256848
2008 09 23.28476 00 29 41.96 -03 05 50.3 19.1   704 – Lincoln Laboratory ETS, New Mexico MPS 256848
2008 10 01.29024 00 24 19.18 -04 39 30.3 19.4 V 703 – Catalina Sky Survey MPS 272753
2008 10 01.29994 00 24 18.75 -04 39 37.1 19.0 V 703 – Catalina Sky Survey MPS 272753
2008 10 01.30957 00 24 18.32 -04 39 44.0 18.9 V 703 – Catalina Sky Survey MPS 272753
2008 10 01.31933 00 24 18.00 -04 39 51.2 18.8 V 703 – Catalina Sky Survey MPS 272753
2008 10 22.19533 00 11 58.51 -08 00 28.2 19.7   704 – Lincoln Laboratory ETS, New Mexico MPS 261669
2008 10 22.21831 00 11 57.97 -08 00 37.3 19.6   704 – Lincoln Laboratory ETS, New Mexico MPS 261669
2008 10 22.22977 00 11 57.64 -08 00 42.7 19.6   704 – Lincoln Laboratory ETS, New Mexico MPS 261669
2008 10 22.24129 00 11 57.28 -08 00 47.6 19.8   704 – Lincoln Laboratory ETS, New Mexico MPS 261669
2008 10 29.14329 00 09 34.59 -08 43 27.7 19.0   704 – Lincoln Laboratory ETS, New Mexico MPS 261669
2008 10 29.15523 00 09 34.42 -08 43 31.1 19.5   704 – Lincoln Laboratory ETS, New Mexico MPS 261669
2008 10 29.16740 00 09 34.18 -08 43 34.9 19.3   704 – Lincoln Laboratory ETS, New Mexico MPS 261669
2008 10 29.17932 00 09 33.98 -08 43 38.6 19.0   704 – Lincoln Laboratory ETS, New Mexico MPS 261669
2008 10 29.19151 00 09 33.70 -08 43 42.1 19.7   704 – Lincoln Laboratory ETS, New Mexico MPS 261669
2010 02 18.21373 10 39 34.90 +04 19 30.7   291 – LPL/Spacewatch II MPS 445841
2010 02 18.21747 10 39 34.69 +04 19 33.2   291 – LPL/Spacewatch II MPS 445841
2010 02 18.22153 10 39 34.51 +04 19 35.2   291 – LPL/Spacewatch II MPS 445841
2010 02 18.22666 10 39 34.26 +04 19 37.5   291 – LPL/Spacewatch II MPS 445841
2010 02 18.23110 10 39 34.05 +04 19 39.8   291 – LPL/Spacewatch II MPS 445841
2010 02 18.23489 10 39 33.86 +04 19 42.1   291 – LPL/Spacewatch II MPS 445841
2010 03 17.23709 10 19 11.11 +08 15 14.9 20.6 R G98 – Calvin-Rehoboth Observatory, Rehoboth MPS 319392
2010 03 17.26397 10 19 10.04 +08 15 27.8 20.8 R G98 – Calvin-Rehoboth Observatory, Rehoboth MPS 319392
2010 03 18.18029 10 18 36.89 +08 22 37.5 20.3 R G98 – Calvin-Rehoboth Observatory, Rehoboth MPS 319392
2010 03 18.19002 10 18 36.53 +08 22 41.1 20.5 R G98 – Calvin-Rehoboth Observatory, Rehoboth MPS 319392
2010 03 18.21012 10 18 35.81 +08 22 50.1 20.5 R G98 – Calvin-Rehoboth Observatory, Rehoboth MPS 319392
2010 04 09.19542 10 10 29.82 +10 37 29.0 20.6 V G96 – Mt. Lemmon Survey MPS 322286
2010 04 09.20130 10 10 29.78 +10 37 30.5 20.4 V G96 – Mt. Lemmon Survey MPS 322286
2010 04 09.20733 10 10 29.71 +10 37 32.5 20.5 V G96 – Mt. Lemmon Survey MPS 322286
2010 04 09.21336 10 10 29.64 +10 37 33.9 20.9 V G96 – Mt. Lemmon Survey MPS 322286
2011 05 01.42600 15 22 32.101 -03 23 30.96 21.5 w F51 – Pan-STARRS 1, Haleakala MPS 381233
2011 05 01.44010 15 22 31.445 -03 23 26.49 21.3 w F51 – Pan-STARRS 1, Haleakala MPS 381233
2011 05 01.45430 15 22 30.774 -03 23 21.88 21.6 w F51 – Pan-STARRS 1, Haleakala MPS 381233
2011 05 12.27097 15 13 58.65 -02 30 34.5 21.6 V 291 – LPL/Spacewatch II MPS 382248
2011 05 12.27535 15 13 58.41 -02 30 33.1 21.8 V 291 – LPL/Spacewatch II MPS 382248
2011 05 12.27909 15 13 58.23 -02 30 32.6 21.4 V 291 – LPL/Spacewatch II MPS 382248
2013 11 15.34590 06 09 51.25 +03 50 23.8 19.7 R 926 – Tenagra II Observatory, Nogales MPS 489789
2013 11 15.36269 06 09 50.89 +03 50 18.0 20.3 R 926 – Tenagra II Observatory, Nogales MPS 489789
2013 11 15.37972 06 09 50.58 +03 50 11.8 19.7 R 926 – Tenagra II Observatory, Nogales MPS 489789
2013 11 24.53540 06 05 58.675 +03 01 50.60 19.7 i F51 – Pan-STARRS 1, Haleakala MPS 489789
2013 11 24.54638 06 05 58.285 +03 01 47.62 19.7 i F51 – Pan-STARRS 1, Haleakala MPS 489789
2013 11 28.55920 06 03 32.058 +02 45 26.19 19.8 g F51 – Pan-STARRS 1, Haleakala MPS 489789
2013 11 28.56972 06 03 31.619 +02 45 23.80 19.9 g F51 – Pan-STARRS 1, Haleakala MPS 489789
2013 11 28.58050 06 03 31.166 +02 45 21.51 19.5 r F51 – Pan-STARRS 1, Haleakala MPS 489789
2013 11 28.59023 06 03 30.759 +02 45 19.35 19.6 r F51 – Pan-STARRS 1, Haleakala MPS 489789
2013 12 07.38883 05 56 55.24 +02 22 13.0 18.9 V 703 – Catalina Sky Survey MPS 491925
2013 12 07.39690 05 56 54.83 +02 22 12.1 18.8 V 703 – Catalina Sky Survey MPS 491925
2013 12 07.40497 05 56 54.37 +02 22 11.7 18.9 V 703 – Catalina Sky Survey MPS 491925
2013 12 07.41304 05 56 53.98 +02 22 11.5 18.8 V 703 – Catalina Sky Survey MPS 491925
2013 12 11.51133 05 53 24.978 +02 18 05.09 19.8 r F51 – Pan-STARRS 1, Haleakala MPS 491925
2013 12 11.52477 05 53 24.236 +02 18 04.83 20.1 g F51 – Pan-STARRS 1, Haleakala MPS 491925
2013 12 11.53798 05 53 23.521 +02 18 04.56 19.8 g F51 – Pan-STARRS 1, Haleakala MPS 491925
2013 12 14.41609 05 50 51.817 +02 17 50.67 18.9 i F51 – Pan-STARRS 1, Haleakala MPS 493270
2013 12 14.42977 05 50 51.049 +02 17 50.91 18.9 i F51 – Pan-STARRS 1, Haleakala MPS 493270
2013 12 28.07479 05 38 55.11 +02 46 20.4 18.9 R H15 – ISON-NM Observatory, Mayhill MPS 495090
2013 12 28.08503 05 38 54.57 +02 46 22.5 19.3 R H15 – ISON-NM Observatory, Mayhill MPS 495090
2013 12 28.09530 05 38 54.19 +02 46 25.2 19.3 R H15 – ISON-NM Observatory, Mayhill MPS 495090
2013 12 28.10551 05 38 53.63 +02 46 28.1 19.2 R H15 – ISON-NM Observatory, Mayhill MPS 495090
2013 12 30.59395 05 36 53.69 +02 56 41.0 20.9 R D29 – Purple Mountain Observatory, XuYi Station MPS 495090
2013 12 30.62674 05 36 52.14 +02 56 50.4 19.9 R D29 – Purple Mountain Observatory, XuYi Station MPS 495090
2014 02 20.28697 05 32 09.266 +09 24 17.60 21.3 w F51 – Pan-STARRS 1, Haleakala MPS 502230
2014 02 20.29850 05 32 09.686 +09 24 23.07 20.7 w F51 – Pan-STARRS 1, Haleakala MPS 502230
2015 03 24.42553 13 03 19.686 +00 44 31.11 21.1 w F51 – Pan-STARRS 1, Haleakala MPS 594863
2015 03 24.43999 13 03 19.034 +00 44 38.02 21.3 w F51 – Pan-STARRS 1, Haleakala MPS 594863
2015 03 24.46910 13 03 17.707 +00 44 52.11 21.2 w F51 – Pan-STARRS 1, Haleakala MPS 594863
2015 03 27.46285 13 01 04.927 +01 08 45.82 21.3 w F51 – Pan-STARRS 1, Haleakala MPS 597454
2015 03 27.47793 13 01 04.223 +01 08 53.34 20.8 w F51 – Pan-STARRS 1, Haleakala MPS 597454
2015 03 27.49302 13 01 03.511 +01 09 00.24 20.8 w F51 – Pan-STARRS 1, Haleakala MPS 597454
2015 04 23.25768 12 41 31.10 +04 13 58.1 21.2 V G96 – Mt. Lemmon Survey MPS 602861
